Observer details:
033 Karl Schwarzschild Observatory, Tautenburg.  Observers S. Melnikov, U.
    Laux, B. Stecklum, F. Ludwig.  Measurer B. Stecklum.  1.34-m f/3 Schmidt +
    CCD.
104 San Marcello Pistoiese.  Observers P. Bacci, M. Maestripieri.  Measurers
    P. Bacci, L. Tesi, G. Fagioli.  0.60-m reflector + CCD.
204 Schiaparelli Observatory.  Observer L. Buzzi.  0.84-m f/3.5 reflector +
    CCD.
381 Tokyo-Kiso.  Observer J. Beniyama.  1.05-m f/3.1 Schmidt + CCD.
958 Observatoire de Dax.  Observer P. Dupouy.  0.32-m f/4.1 Schmidt-
    Cassegrain.
C77 Bernezzo Observatory.  Observer A. Mantero.  0.25-m f/4.0 reflector + CCD.
C95 SATINO Remote Observatory, Haute Provence.  Observer J. Jahn.  0.60-m
    f/3.2 Newtonian reflector + CCD.
H21 Astronomical Research Observatory, Westfield.  Observer R. Holmes.
    Measurers S. Foglia, L. Buzzi, T. Linder, R. Holmes.  0.76-m f/3.0
    astrograph + CCD.
I52 Steward Observatory, Mt. Lemmon Station.  Observer T. A. Pruyne.
    Measurers E. J. Christensen, G. A. Farneth, D. C. Fuls, A. R. Gibbs, A. D.
    Grauer, H. Groeller, R. A. Kowalski, S. M. Larson, G. J. Leonard, T. A.
    Pruyne, D. Rankin, R. L. Seaman, F. C. Shelly, K. W. Wierzchos.  1.0-m
    reflector + CCD.
I93 St Pardon de Conques.  Observer F. Losse.  0.40-m f/3.7 reflector + CCD.
J04 ESA Optical Ground Station, Tenerife.  Observer E. Kuusela.  Measurers M.
    Micheli, D. Koschny, L. Conversi, M. Busch, E. Schwab, A. Knofel.  1.0-m
    f/4.4 reflector + CCD.
J95 Great Shefford.  Observer P. Birtwhistle.  0.41-m f/6.3 Schmidt-Cassegrain
    + CCD.
K63 G. Pascoli Observatory, Castelvecchio Pascoli.  Observer R. Bacci.  0.4-m
    f/3.2 Newtonian reflector + CCD.
K83 Beppe Forti Astronomical Observatory, Montelupo.  Observers M. Tombelli,
    M. Lombardo, L. Grazzini, A. Mazzanti, G. Interrante, T. Bitossi, M.
    Iozzi.  Measurers M. Tombelli, Y. Mazzanti.  0.40-m f/8 Ritchey-Chretien +
    CCD.
L01 Visnjan Observatory, Tican.  Observers K. Korlevic, F. Hrzenjak, E.
    Pettarin.  Measurer E. Pettarin.  1.0-m f/2.9 reflector + CCD.
L34 Galhassin Robotic Telescope, Isnello.  Observer A. Nastasi.  0.40-m
    reflector + CCD.
N88 Xingming Observatory #3, Nanshan.  Observer X. Gao.  Measurer Q.-Z. Ye.
    0.6-m f/8 Ritchey-Chretien + CCD.
W34 Squirrel Valley Observatory, Columbus.  Observer R. L. Flynn.  0.35-m
    f/1.9 Schmidt-Cassegrain + CCD.
Z80 Northolt Branch Observatory.  Observer G. Wells.  Measurers G. Wells, D.
    Bamberger.  0.25-m f/8.0 Ritchey-Chretien + CCD.
Z99 Clixby Observatory, Cleethorpes.  Observer A. Mickleburgh.  0.36-m f/8
    Schmidt-Cassegrain + CCD.

Orbital elements:
2020 QW                                                  Earth MOID = 0.0118 AU
Epoch 2020 May 31.0 TT = JDT 2459000.5                  Veres
M 339.95375              (2000.0)            P               Q
n   0.50886180     Peri.  126.31988     +0.10364135     +0.99222459
a   1.5538275      Node   149.41148     -0.95043581     +0.11921985
e   0.4117692      Incl.    7.78300     -0.29313862     -0.03573506
P   1.94           H   25.2           G   0.15           U   6
Residuals in seconds of arc
200817 381  0.4-  0.1-    200817 104  0.1-  0.6+    200818 W34  0.5-  0.1-
200817 381  0.8+  0.1-    200817 104  0.1+  0.1+    200818 W34  0.1-  0.0
200817 381  0.9+  0.3+    200817 104  0.5-  0.0     200818 W34  1.1+  0.9-
200817 381  0.1+  0.3-    200817 104  0.2+  0.6+    200818 H21  0.1+  0.3+
200817 381  0.2+  0.0     200817 104  0.4+  0.7+    200818 H21  0.1+  0.4+
200817 381  0.3-  0.5+    200817 Z80  1.2-  0.2-    200818 H21  0.1+  0.2+
200817 381  0.7+  0.3+    200817 Z80  0.0   0.0     200818 H21  0.1+  0.1+
200817 381  0.1+  0.7-    200817 Z80  0.2-  0.4-    200818 H21  0.0   0.3+
200817 381  0.6-  0.7+    200817 Z80  0.5+  0.6+    200818 I52  0.3-  0.3+
200817 381  0.0   0.2-    200817 958  0.6-  0.2-    200818 I52  0.2+  0.2+
200817 381  0.3+  0.6-    200817 958  0.4-  0.7+    200818 I52  0.5+  0.3-
200817 N88  0.6-  0.2-    200817 958  0.4-  0.2+    200818 I52  0.1+  0.2-
200817 N88  0.7+  0.4-    200817 958  0.1-  0.2+    200818 381  1.2+  0.7+
200817 N88  0.8-  0.6+    200817 204  0.0   0.3+    200818 381  0.4+  0.6+
200817 N88  1.0-  0.3+    200817 204  0.1-  0.0     200818 K63  0.7-  0.8+
200817 N88  0.4-  0.2+    200817 204  0.4+  0.2-    200818 K63  1.1-  0.2+
200817 N88  0.8+  0.2-    200817 204  0.6+  0.4-    200818 K83  0.8+  0.7-
200817 N88  0.1+  0.3-    200817 204  0.2+  0.2-    200818 K83  0.9+  1.3-
200817 N88  0.4-  0.0     200817 I93  0.3+  0.1+    200818 K83  1.2+  0.8-
200817 N88  0.8+  0.4-    200817 I93  0.3+  0.1+    200818 C77 (1.6+  1.1-)
200817 N88  0.3-  0.3+    200817 I93  0.2+  0.1+    200818 C77  0.8+  0.7-
200817 N88  1.4-  0.5+    200818 033  0.5-  0.2-    200818 C77 (1.6+  1.2-)
200817 N88  0.2+  0.1+    200818 033  0.2-  0.3-    200818 033  0.1-  0.3-
200817 N88  0.6+  0.2-    200818 033  0.5-  0.0     200818 033  0.0   0.5-
200817 L34  0.3-  1.5-    200818 033  0.2-  0.5-    200818 033  0.2+  0.7-
200817 C95  0.4+  0.3+    200818 033  0.1-  0.5-    200818 J95  0.6-  0.5+
200817 L34  0.7-  0.4-    200818 L01  0.2+  0.1+    200818 J95  0.0   0.1+
200817 C95  0.8+  0.6-    200818 L01  0.0   0.2+    200818 J95  0.4-  0.3+
200817 C95  0.2+  0.9+    200818 L01  0.1+  0.0     200818 Z99  0.6+  0.4-
200817 L34  0.0   0.9-    200818 L01  0.2+  0.2+    200818 Z99  0.5+  0.7-
200817 J04  0.4-  0.0     200818 W34  1.0+  1.0-    200818 Z99  0.7+  0.2-
200817 J04  0.1-  0.2+    200818 W34  0.1-  0.4+
200817 J04  1.4-  0.7+    200818 W34  0.2+  0.3-

Ephemeris:
2020 QW                  a,e,i = 1.55, 0.41, 8                   q = 0.9140
Date    TT    R. A. (2000) Decl.     Delta      r    Elong.  Phase     V
2020 07 20    11 53 46.1 +30 03 43   0.1765  0.9222    53.5   117.7    25.9
...
2020 08 04    12 21 24.6 +32 56 19   0.08570 0.9597    48.3   127.8    25.3
...
2020 08 12    13 03 55.1 +38 49 26   0.03882 0.9904    52.9   125.3    23.4
...
2020 08 18    19 03 32.5 +39 15 47   0.01189 1.0173   114.8    64.5    17.9
2020 08 19    20 44 24.6 +21 39 11   0.01275 1.0221   141.6    38.0    17.3
2020 08 20    21 41 44.6 +06 44 21   0.01597 1.0269   160.4    19.3    17.3
...
2020 08 26    23 12 04.0 -18 17 14   0.04835 1.0574   165.1    14.3    19.6
...
2020 09 03    23 31 56.9 -23 02 37   0.09711 1.1012   161.4    17.0    21.2
...
2020 09 18    23 39 07.9 -24 07 24   0.1973  1.1898   157.7    18.7    23.0

M. P. C. Staff               (C) Copyright 2020 MPC           M.P.E.C. 2020-Q81




More information about the Iaude mailing list